| time (UTC) | temp F | wind direction | speed MPH | gust MPH | rain 1hr in | rain 24hr in | rain mn in | humidity % | barometer mb |
| 20260506231301 | 46 | 292 | 1.0 | 3.0 | 0.00 | 0.11 | 0.08 | 94 | 1010.2 |
| 20260506230800 | 46 | 292 | 1.0 | 3.0 | 0.00 | 0.11 | 0.08 | 94 | 1010.1 |
| 20260506230301 | 46 | 292 | 1.0 | 3.0 | 0.00 | 0.11 | 0.08 | 94 | 1010.1 |
| 20260506225801 | 46 | 292 | 1.0 | 2.0 | 0.00 | 0.11 | 0.08 | 94 | 1010.1 |
| 20260506225301 | 46 | 292 | 1.0 | 3.0 | 0.00 | 0.11 | 0.08 | 94 | 1009.9 |
| 20260506224801 | 46 | 292 | 1.0 | 3.0 | 0.00 | 0.11 | 0.08 | 94 | 1010.0 |
| 20260506224300 | 46 | 292 | 1.0 | 3.0 | 0.00 | 0.11 | 0.08 | 94 | 1010.0 |
| 20260506223800 | 46 | 292 | 1.0 | 3.0 | 0.00 | 0.11 | 0.08 | 94 | 1010.1 |
| 20260506223259 | 46 | 300 | 1.0 | 3.0 | 0.00 | 0.11 | 0.08 | 94 | 1010.0 |
| 20260506222759 | 46 | 258 | 1.0 | 3.0 | 0.00 | 0.11 | 0.08 | 94 | 1010.0 |
| 20260506222256 | 46 | 244 | 0.0 | 2.0 | 0.00 | 0.11 | 0.08 | 94 | 1010.0 |
| 20260506221758 | 46 | 244 | 1.0 | 2.0 | 0.00 | 0.11 | 0.08 | 94 | 1009.8 |
| 20260506221259 | 46 | 244 | 1.0 | 2.0 | 0.00 | 0.11 | 0.08 | 94 | 1009.7 |
| 20260506220753 | 46 | 244 | 2.0 | 4.0 | 0.00 | 0.11 | 0.08 | 94 | 1009.8 |
| 20260506220253 | 46 | 244 | 2.0 | 4.0 | 0.00 | 0.11 | 0.08 | 94 | 1009.8 |
| 20260506215754 | 46 | 276 | 2.0 | 4.0 | 0.00 | 0.11 | 0.08 | 94 | 1009.8 |
| 20260506215253 | 46 | 256 | 2.0 | 4.0 | 0.00 | 0.11 | 0.08 | 94 | 1009.8 |
| 20260506214750 | 46 | 254 | 1.0 | 4.0 | 0.00 | 0.11 | 0.08 | 94 | 1009.7 |
| 20260506214252 | 46 | 246 | 1.0 | 4.0 | 0.00 | 0.11 | 0.08 | 94 | 1009.7 |
| 20260506213751 | 46 | 246 | 1.0 | 4.0 | 0.00 | 0.11 | 0.08 | 94 | 1009.7 |
| 20260506213251 | 46 | 259 | 1.0 | 3.0 | 0.00 | 0.11 | 0.08 | 94 | 1009.6 |
| 20260506212750 | 47 | 259 | 0.0 | 3.0 | 0.00 | 0.11 | 0.08 | 94 | 1009.6 |
| 20260506212250 | 47 | 259 | 1.0 | 2.0 | 0.00 | 0.11 | 0.08 | 94 | 1009.7 |
| 20260506211250 | 46 | 259 | 2.0 | 4.0 | 0.00 | 0.11 | 0.08 | 94 | 1009.8 |
| 20260506210751 | 47 | 266 | 1.0 | 3.0 | 0.00 | 0.11 | 0.08 | 94 | 1009.7 |
| 20260506210251 | 47 | 266 | 1.0 | 3.0 | 0.00 | 0.11 | 0.08 | 94 | 1009.7 |
| 20260506205752 | 47 | 266 | 1.0 | 3.0 | 0.00 | 0.11 | 0.08 | 94 | 1009.6 |
| 20260506205251 | 46 | 266 | 2.0 | 3.0 | 0.00 | 0.11 | 0.08 | 94 | 1009.6 |
| 20260506204750 | 46 | 257 | 2.0 | 4.0 | 0.00 | 0.11 | 0.08 | 94 | 1009.6 |
| 20260506204250 | 46 | 270 | 2.0 | 4.0 | 0.00 | 0.11 | 0.08 | 94 | 1009.7 |
| 20260506203752 | 46 | 259 | 1.0 | 4.0 | 0.00 | 0.11 | 0.08 | 94 | 1009.6 |
| 20260506202250 | 47 | 273 | 1.0 | 3.0 | 0.00 | 0.11 | 0.08 | 94 | 1009.5 |
| 20260506201751 | 47 | 273 | 2.0 | 4.0 | 0.00 | 0.11 | 0.08 | 94 | 1009.6 |
| 20260506201251 | 47 | 272 | 2.0 | 4.0 | 0.00 | 0.11 | 0.08 | 93 | 1009.5 |
| 20260506200750 | 47 | 287 | 1.0 | 3.0 | 0.00 | 0.11 | 0.08 | 93 | 1009.6 |
| 20260506195752 | 47 | 299 | 1.0 | 3.0 | 0.00 | 0.12 | 0.08 | 94 | 1009.5 |
| 20260506195250 | 47 | 299 | 1.0 | 3.0 | 0.00 | 0.13 | 0.08 | 94 | 1009.5 |
| 20260506194750 | 47 | 265 | 1.0 | 3.0 | 0.00 | 0.14 | 0.08 | 94 | 1009.6 |
| 20260506194250 | 47 | 263 | 1.0 | 4.0 | 0.00 | 0.14 | 0.08 | 93 | 1009.6 |
| 20260506193750 | 47 | 267 | 1.0 | 4.0 | 0.00 | 0.14 | 0.08 | 93 | 1009.7 |
| 20260506193250 | 47 | 308 | 1.0 | 3.0 | 0.00 | 0.14 | 0.08 | 94 | 1009.8 |
| 20260506192751 | 47 | 342 | 1.0 | 3.0 | 0.00 | 0.15 | 0.08 | 93 | 1009.7 |
| 20260506192250 | 47 | 342 | 1.0 | 4.0 | 0.00 | 0.15 | 0.08 | 94 | 1009.7 |
| 20260506191250 | 47 | 331 | 2.0 | 4.0 | 0.00 | 0.15 | 0.08 | 94 | 1009.7 |
| 20260506190251 | 47 | 280 | 2.0 | 4.0 | 0.00 | 0.15 | 0.08 | 94 | 1009.7 |
| 20260506185748 | 47 | 325 | 2.0 | 4.0 | 0.00 | 0.15 | 0.08 | 94 | 1009.6 |
| 20260506185249 | 47 | 320 | 2.0 | 5.0 | 0.00 | 0.15 | 0.08 | 94 | 1009.6 |
| 20260506184749 | 47 | 338 | 2.0 | 5.0 | 0.00 | 0.15 | 0.08 | 94 | 1009.6 |
| 20260506184247 | 47 | 336 | 2.0 | 3.0 | 0.00 | 0.15 | 0.08 | 94 | 1009.7 |
| 20260506183746 | 47 | 343 | 2.0 | 4.0 | 0.00 | 0.15 | 0.08 | 94 | 1009.6 |
| 20260506183247 | 47 | 349 | 2.0 | 4.0 | 0.00 | 0.15 | 0.08 | 94 | 1009.6 |
| 20260506182247 | 47 | 313 | 1.0 | 3.0 | 0.00 | 0.15 | 0.08 | 94 | 1009.8 |
| 20260506181747 | 47 | 330 | 1.0 | 3.0 | 0.00 | 0.15 | 0.08 | 94 | 1009.8 |
| 20260506181246 | 47 | 325 | 1.0 | 3.0 | 0.00 | 0.15 | 0.08 | 94 | 1009.9 |
| 20260506180747 | 46 | 312 | 1.0 | 3.0 | 0.00 | 0.15 | 0.08 | 94 | 1010.1 |
| 20260506180246 | 46 | 323 | 2.0 | 3.0 | 0.00 | 0.15 | 0.08 | 94 | 1010.4 |
| 20260506175747 | 46 | 288 | 2.0 | 4.0 | 0.00 | 0.15 | 0.08 | 94 | 1010.5 |
| 20260506175247 | 46 | 336 | 2.0 | 5.0 | 0.00 | 0.15 | 0.08 | 94 | 1010.5 |
| 20260506174744 | 47 | 293 | 2.0 | 5.0 | 0.00 | 0.15 | 0.08 | 94 | 1010.4 |
| 20260506174245 | 47 | 344 | 2.0 | 5.0 | 0.00 | 0.15 | 0.08 | 94 | 1010.3 |
| 20260506173744 | 47 | 342 | 1.0 | 3.0 | 0.00 | 0.15 | 0.08 | 94 | 1010.3 |
| 20260506173246 | 47 | 337 | 1.0 | 3.0 | 0.00 | 0.15 | 0.08 | 94 | 1010.3 |
| 20260506172745 | 47 | 309 | 1.0 | 3.0 | 0.00 | 0.15 | 0.08 | 94 | 1010.3 |
| 20260506172245 | 47 | 315 | 1.0 | 3.0 | 0.00 | 0.15 | 0.08 | 94 | 1010.3 |
| 20260506171745 | 47 | 275 | 1.0 | 2.0 | 0.00 | 0.15 | 0.08 | 94 | 1010.3 |
| 20260506171244 | 47 | 275 | 1.0 | 4.0 | 0.00 | 0.15 | 0.08 | 94 | 1010.4 |
| 20260506170743 | 47 | 274 | 1.0 | 4.0 | 0.00 | 0.15 | 0.08 | 94 | 1010.4 |
| 20260506170242 | 47 | 308 | 2.0 | 4.0 | 0.00 | 0.15 | 0.08 | 94 | 1010.2 |
| 20260506165742 | 47 | 294 | 2.0 | 4.0 | 0.00 | 0.15 | 0.08 | 94 | 1010.3 |
| 20260506165242 | 47 | 333 | 2.0 | 4.0 | 0.00 | 0.15 | 0.08 | 94 | 1010.1 |
| 20260506164742 | 47 | 346 | 2.0 | 4.0 | 0.01 | 0.15 | 0.08 | 94 | 1010.5 |
| 20260506163742 | 47 | 283 | 2.0 | 4.0 | 0.01 | 0.15 | 0.08 | 94 | 1010.2 |
| 20260506163240 | 47 | 327 | 2.0 | 5.0 | 0.02 | 0.15 | 0.08 | 94 | 1010.3 |
| 20260506162740 | 47 | 330 | 2.0 | 5.0 | 0.02 | 0.15 | 0.08 | 94 | 1010.4 |
| 20260506162240 | 47 | 311 | 2.0 | 4.0 | 0.02 | 0.15 | 0.08 | 94 | 1010.5 |
| 20260506161741 | 47 | 325 | 2.0 | 4.0 | 0.02 | 0.15 | 0.08 | 94 | 1010.5 |
| 20260506161240 | 48 | 268 | 2.0 | 4.0 | 0.02 | 0.15 | 0.08 | 94 | 1010.6 |
| 20260506160740 | 48 | 312 | 2.0 | 3.0 | 0.02 | 0.15 | 0.08 | 94 | 1010.5 |
| 20260506160240 | 47 | 284 | 1.0 | 3.0 | 0.02 | 0.15 | 0.08 | 94 | 1010.4 |
| 20260506155740 | 47 | 284 | 1.0 | 3.0 | 0.02 | 0.15 | 0.08 | 94 | 1010.3 |
| 20260506155237 | 47 | 284 | 2.0 | 3.0 | 0.02 | 0.15 | 0.08 | 94 | 1010.4 |
| 20260506154737 | 47 | 317 | 2.0 | 3.0 | 0.01 | 0.14 | 0.07 | 94 | 1010.4 |
| 20260506153237 | 48 | 349 | 2.0 | 4.0 | 0.00 | 0.13 | 0.06 | 94 | 1010.4 |
| 20260506152736 | 48 | 307 | 2.0 | 4.0 | 0.00 | 0.13 | 0.06 | 94 | 1010.5 |
| 20260506152237 | 48 | 321 | 2.0 | 5.0 | 0.00 | 0.13 | 0.06 | 94 | 1010.4 |
| 20260506151737 | 48 | 320 | 2.0 | 5.0 | 0.00 | 0.13 | 0.06 | 94 | 1010.5 |
| 20260506151236 | 48 | 319 | 1.0 | 3.0 | 0.00 | 0.13 | 0.06 | 94 | 1010.6 |
| 20260506150234 | 48 | 279 | 1.0 | 5.0 | 0.00 | 0.13 | 0.06 | 94 | 1010.5 |
| 20260506145733 | 48 | 272 | 1.0 | 4.0 | 0.00 | 0.13 | 0.06 | 94 | 1010.7 |
| 20260506145230 | 49 | 300 | 1.0 | 4.0 | 0.00 | 0.13 | 0.06 | 94 | 1010.7 |
| 20260506144729 | 49 | 338 | 0.0 | 2.0 | 0.00 | 0.13 | 0.06 | 94 | 1011.0 |
| 20260506144229 | 49 | 338 | 1.0 | 2.0 | 0.00 | 0.13 | 0.06 | 94 | 1010.9 |
| 20260506143729 | 49 | 0 | 1.0 | 3.0 | 0.00 | 0.13 | 0.06 | 94 | 1010.9 |
| 20260506143231 | 49 | 0 | 1.0 | 3.0 | 0.01 | 0.13 | 0.06 | 94 | 1010.9 |
| 20260506142730 | 48 | 350 | 1.0 | 3.0 | 0.01 | 0.13 | 0.06 | 94 | 1011.1 |
| 20260506141229 | 49 | 350 | 1.0 | 2.0 | 0.02 | 0.13 | 0.06 | 94 | 1011.0 |
| 20260506140728 | 49 | 349 | 1.0 | 2.0 | 0.02 | 0.13 | 0.06 | 94 | 1011.0 |
| 20260506140228 | 49 | 355 | 1.0 | 2.0 | 0.02 | 0.13 | 0.06 | 94 | 1011.0 |
| 20260506135728 | 49 | 355 | 1.0 | 3.0 | 0.02 | 0.13 | 0.06 | 94 | 1011.0 |
| 20260506135228 | 49 | 5 | 2.0 | 3.0 | 0.02 | 0.13 | 0.06 | 94 | 1011.0 |
| 20260506134728 | 49 | 304 | 2.0 | 4.0 | 0.02 | 0.13 | 0.06 | 94 | 1011.4 |
| 20260506134227 | 49 | 336 | 1.0 | 4.0 | 0.02 | 0.13 | 0.06 | 94 | 1011.0 |
| 20260506133728 | 49 | 345 | 1.0 | 3.0 | 0.02 | 0.13 | 0.06 | 94 | 1011.0 |
| 20260506133228 | 49 | 338 | 1.0 | 5.0 | 0.01 | 0.12 | 0.06 | 94 | 1011.1 |
| 20260506131728 | 49 | 338 | 2.0 | 6.0 | 0.00 | 0.11 | 0.04 | 94 | 1011.6 |
| 20260506131228 | 49 | 36 | 1.0 | 3.0 | 0.00 | 0.11 | 0.04 | 94 | 1011.5 |
| 20260506130728 | 49 | 37 | 0.0 | 3.0 | 0.00 | 0.11 | 0.04 | 94 | 1011.3 |
| 20260506130228 | 50 | 345 | 1.0 | 2.0 | 0.00 | 0.11 | 0.04 | 94 | 1011.5 |
| 20260506125228 | 50 | 345 | 1.0 | 2.0 | 0.00 | 0.11 | 0.04 | 94 | 1011.9 |
| 20260506124727 | 50 | 345 | 0.0 | 2.0 | 0.00 | 0.11 | 0.04 | 94 | 1011.6 |
| 20260506123728 | 50 | 345 | 0.0 | 2.0 | 0.00 | 0.11 | 0.04 | 94 | 1011.6 |
| 20260506123229 | 50 | 345 | 0.0 | 2.0 | 0.00 | 0.11 | 0.04 | 94 | 1011.7 |
| 20260506122728 | 50 | 345 | 0.0 | 2.0 | 0.00 | 0.11 | 0.04 | 94 | 1011.9 |
| 20260506122229 | 50 | 345 | 1.0 | 3.0 | 0.00 | 0.11 | 0.04 | 94 | 1011.6 |
| 20260506121728 | 50 | 345 | 1.0 | 3.0 | 0.00 | 0.11 | 0.04 | 94 | 1011.6 |
| 20260506121228 | 50 | 319 | 1.0 | 3.0 | 0.00 | 0.11 | 0.04 | 94 | 1011.8 |
| 20260506120727 | 50 | 348 | 1.0 | 3.0 | 0.00 | 0.11 | 0.04 | 94 | 1012.1 |
| 20260506120227 | 50 | 337 | 2.0 | 4.0 | 0.00 | 0.11 | 0.04 | 94 | 1012.2 |
| 20260506115728 | 50 | 38 | 2.0 | 4.0 | 0.00 | 0.11 | 0.04 | 94 | 1012.0 |
| 20260506114728 | 50 | 351 | 1.0 | 2.0 | 0.00 | 0.11 | 0.04 | 94 | 1011.7 |
| 20260506114229 | 50 | 0 | 1.0 | 2.0 | 0.00 | 0.11 | 0.04 | 94 | 1011.7 |
| 20260506113728 | 50 | 0 | 1.0 | 2.0 | 0.00 | 0.11 | 0.04 | 94 | 1011.6 |
| 20260506113227 | 50 | 0 | 1.0 | 4.0 | 0.00 | 0.11 | 0.04 | 94 | 1011.6 |
| 20260506112728 | 50 | 0 | 1.0 | 4.0 | 0.00 | 0.11 | 0.04 | 94 | 1011.6 |
| 20260506110723 | 51 | 5 | 0.0 | 2.0 | 0.00 | 0.11 | 0.04 | 94 | 1011.7 |
| 20260506110223 | 51 | 5 | 0.0 | 2.0 | 0.00 | 0.11 | 0.04 | 95 | 1011.5 |
| 20260506104721 | 51 | 5 | 1.0 | 2.0 | 0.00 | 0.11 | 0.04 | 94 | 1011.6 |
| 20260506104223 | 51 | 5 | 1.0 | 2.0 | 0.00 | 0.11 | 0.04 | 94 | 1011.6 |
| 20260506103222 | 51 | 5 | 0.0 | 2.0 | 0.00 | 0.11 | 0.04 | 94 | 1011.7 |
| 20260506102721 | 51 | 5 | 1.0 | 3.0 | 0.00 | 0.11 | 0.04 | 94 | 1011.5 |
| 20260506102222 | 51 | 5 | 1.0 | 3.0 | 0.00 | 0.11 | 0.04 | 94 | 1011.6 |
| 20260506101722 | 51 | 331 | 1.0 | 2.0 | 0.00 | 0.11 | 0.04 | 94 | 1011.8 |
| 20260506101222 | 51 | 331 | 1.0 | 3.0 | 0.00 | 0.11 | 0.04 | 94 | 1011.9 |
| 20260506100721 | 51 | 338 | 1.0 | 3.0 | 0.00 | 0.11 | 0.04 | 94 | 1011.8 |
| 20260506100221 | 52 | 337 | 1.0 | 3.0 | 0.00 | 0.11 | 0.04 | 94 | 1011.9 |
| 20260506095722 | 52 | 57 | 1.0 | 5.0 | 0.00 | 0.11 | 0.04 | 94 | 1011.6 |
| 20260506095220 | 52 | 61 | 1.0 | 5.0 | 0.00 | 0.11 | 0.04 | 95 | 1011.6 |
| 20260506094721 | 52 | 355 | 1.0 | 3.0 | 0.00 | 0.11 | 0.04 | 95 | 1012.0 |
| 20260506094221 | 52 | 355 | 1.0 | 3.0 | 0.00 | 0.11 | 0.04 | 94 | 1011.9 |
| 20260506093721 | 52 | 15 | 1.0 | 3.0 | 0.00 | 0.11 | 0.04 | 95 | 1011.8 |
| 20260506092721 | 53 | 5 | 1.0 | 2.0 | 0.00 | 0.11 | 0.04 | 95 | 1011.8 |
| 20260506091221 | 53 | 5 | 1.0 | 3.0 | 0.00 | 0.11 | 0.04 | 94 | 1011.7 |
| 20260506090721 | 53 | 5 | 1.0 | 4.0 | 0.00 | 0.11 | 0.04 | 94 | 1011.5 |
| 20260506090219 | 53 | 63 | 1.0 | 4.0 | 0.00 | 0.11 | 0.04 | 94 | 1011.7 |
| 20260506085719 | 53 | 311 | 1.0 | 2.0 | 0.00 | 0.11 | 0.04 | 94 | 1011.9 |
| 20260506085219 | 53 | 311 | 1.0 | 2.0 | 0.00 | 0.11 | 0.04 | 95 | 1011.7 |
| 20260506084721 | 53 | 311 | 0.0 | 2.0 | 0.00 | 0.11 | 0.04 | 94 | 1012.3 |
| 20260506084220 | 53 | 311 | 0.0 | 1.0 | 0.00 | 0.11 | 0.04 | 94 | 1011.9 |
| 20260506083719 | 53 | 311 | 0.0 | 1.0 | 0.00 | 0.11 | 0.04 | 94 | 1011.6 |
| 20260506083219 | 53 | 311 | 0.0 | 2.0 | 0.00 | 0.11 | 0.04 | 94 | 1011.9 |
| 20260506082719 | 53 | 311 | 1.0 | 2.0 | 0.00 | 0.11 | 0.04 | 94 | 1012.2 |
| 20260506082218 | 53 | 311 | 1.0 | 2.0 | 0.00 | 0.11 | 0.04 | 94 | 1012.1 |
| 20260506081718 | 54 | 305 | 1.0 | 4.0 | 0.00 | 0.11 | 0.04 | 94 | 1012.3 |
| 20260506081218 | 53 | 311 | 1.0 | 4.0 | 0.00 | 0.11 | 0.04 | 94 | 1012.5 |
| 20260506080717 | 53 | 107 | 0.0 | 2.0 | 0.00 | 0.11 | 0.04 | 94 | 1011.9 |
| 20260506073216 | 54 | 107 | 1.0 | 2.0 | 0.00 | 0.11 | 0.04 | 94 | 1011.3 |
| 20260506072715 | 54 | 107 | 0.0 | 2.0 | 0.00 | 0.11 | 0.04 | 94 | 1011.7 |
| 20260506072215 | 54 | 107 | 0.0 | 1.0 | 0.00 | 0.11 | 0.04 | 94 | 1011.5 |
| 20260506071715 | 54 | 107 | 0.0 | 0.0 | 0.00 | 0.11 | 0.04 | 94 | 1011.4 |
| 20260506071215 | 54 | 107 | 0.0 | 1.0 | 0.00 | 0.11 | 0.04 | 94 | 1011.4 |
| 20260506070715 | 54 | 107 | 1.0 | 2.0 | 0.00 | 0.11 | 0.04 | 94 | 1011.6 |
| 20260506070215 | 54 | 107 | 1.0 | 2.0 | 0.00 | 0.11 | 0.04 | 94 | 1011.7 |
| 20260506061214 | 54 | 107 | 0.0 | 1.0 | 0.00 | 0.11 | 0.04 | 93 | 1011.7 |
| 20260506050712 | 54 | 108 | 1.0 | 3.0 | 0.04 | 0.11 | 0.04 | 92 | 1012.2 |
| 20260506050211 | 54 | 108 | 1.0 | 3.0 | 0.04 | 0.11 | 0.04 | 92 | 1012.1 |
| 20260506043711 | 55 | 46 | 1.0 | 2.0 | 0.04 | 0.09 | 0.02 | 90 | 1012.0 |
| 20260506043210 | 55 | 46 | 1.0 | 2.0 | 0.04 | 0.09 | 0.02 | 90 | 1011.4 |
| 20260506042710 | 55 | 46 | 1.0 | 2.0 | 0.04 | 0.09 | 0.02 | 90 | 1011.9 |
| 20260506042208 | 55 | 46 | 1.0 | 3.0 | 0.04 | 0.08 | 0.01 | 90 | 1011.8 |
| 20260506041208 | 55 | 31 | 2.0 | 9.0 | 0.03 | 0.07 | 0.00 | 89 | 1012.1 |
| 20260506040209 | 56 | 5 | 1.0 | 4.0 | 0.03 | 0.07 | 0.00 | 89 | 1012.3 |
| 20260506035707 | 56 | 278 | 0.0 | 2.0 | 0.02 | 0.06 | 0.06 | 89 | 1012.1 |
| 20260506035207 | 57 | 278 | 1.0 | 3.0 | 0.02 | 0.06 | 0.06 | 89 | 1011.6 |
| 20260506034705 | 57 | 278 | 2.0 | 8.0 | 0.02 | 0.06 | 0.06 | 90 | 1011.4 |
| 20260506034205 | 57 | 246 | 3.0 | 8.0 | 0.01 | 0.05 | 0.05 | 90 | 1011.3 |
| 20260506033705 | 57 | 338 | 4.0 | 9.0 | 0.01 | 0.05 | 0.05 | 90 | 1011.1 |
| 20260506033205 | 58 | 262 | 3.0 | 11.0 | 0.01 | 0.05 | 0.05 | 91 | 1010.7 |
| 20260506032706 | 58 | 331 | 2.0 | 11.0 | 0.01 | 0.05 | 0.05 | 92 | 1010.6 |
| 20260506032206 | 58 | 325 | 1.0 | 5.0 | 0.00 | 0.04 | 0.04 | 92 | 1010.6 |
| 20260506031705 | 58 | 9 | 1.0 | 5.0 | 0.00 | 0.04 | 0.04 | 92 | 1010.1 |
| 20260506031206 | 58 | 342 | 1.0 | 3.0 | 0.00 | 0.04 | 0.04 | 92 | 1010.2 |
| 20260506030705 | 58 | 342 | 1.0 | 3.0 | 0.00 | 0.04 | 0.04 | 91 | 1010.1 |
| 20260506030206 | 58 | 9 | 1.0 | 4.0 | 0.00 | 0.04 | 0.04 | 91 | 1010.1 |
| 20260506025706 | 58 | 5 | 1.0 | 4.0 | 0.00 | 0.04 | 0.04 | 91 | 1010.2 |
| 20260506025205 | 58 | 5 | 0.0 | 3.0 | 0.00 | 0.04 | 0.04 | 91 | 1010.2 |
| 20260506024206 | 58 | 9 | 0.0 | 3.0 | 0.00 | 0.04 | 0.04 | 91 | 1010.1 |
| 20260506023706 | 58 | 9 | 0.0 | 3.0 | 0.00 | 0.04 | 0.04 | 91 | 1010.1 |
| 20260506023206 | 58 | 15 | 0.0 | 0.0 | 0.00 | 0.04 | 0.04 | 90 | 1010.1 |
| 20260506022705 | 58 | 15 | 0.0 | 0.0 | 0.00 | 0.04 | 0.04 | 90 | 1010.4 |
| 20260506022208 | 58 | 15 | 0.0 | 2.0 | 0.00 | 0.04 | 0.04 | 90 | 1010.0 |
| 20260506021706 | 58 | 15 | 2.0 | 4.0 | 0.00 | 0.04 | 0.04 | 90 | 1010.2 |
| 20260506021206 | 58 | 15 | 2.0 | 4.0 | 0.00 | 0.04 | 0.04 | 90 | 1010.3 |
| 20260506020707 | 59 | 318 | 1.0 | 4.0 | 0.00 | 0.04 | 0.04 | 90 | 1010.3 |
| 20260506020206 | 59 | 355 | 0.0 | 3.0 | 0.00 | 0.04 | 0.04 | 90 | 1010.1 |
| 20260506015706 | 59 | 355 | 0.0 | 0.0 | 0.00 | 0.04 | 0.04 | 90 | 1010.1 |
| 20260506015206 | 59 | 355 | 0.0 | 1.0 | 0.00 | 0.04 | 0.04 | 89 | 1010.0 |
| 20260506014706 | 59 | 355 | 0.0 | 1.0 | 0.00 | 0.04 | 0.04 | 89 | 1010.0 |
| 20260506014206 | 59 | 355 | 0.0 | 2.0 | 0.00 | 0.04 | 0.04 | 89 | 1009.6 |
| 20260506013707 | 59 | 355 | 0.0 | 2.0 | 0.00 | 0.04 | 0.04 | 89 | 1009.5 |
| 20260506013206 | 59 | 355 | 0.0 | 1.0 | 0.00 | 0.04 | 0.04 | 89 | 1009.4 |
| 20260506012707 | 59 | 355 | 0.0 | 0.0 | 0.00 | 0.04 | 0.04 | 89 | 1009.4 |
| 20260506012206 | 59 | 355 | 0.0 | 2.0 | 0.00 | 0.04 | 0.04 | 89 | 1009.5 |
| 20260506011706 | 59 | 355 | 1.0 | 3.0 | 0.00 | 0.04 | 0.04 | 89 | 1009.3 |
| 20260506011205 | 60 | 355 | 1.0 | 3.0 | 0.00 | 0.04 | 0.04 | 89 | 1009.4 |
| 20260506010706 | 60 | 355 | 1.0 | 2.0 | 0.00 | 0.04 | 0.04 | 88 | 1009.5 |
| 20260506010205 | 60 | 355 | 1.0 | 3.0 | 0.00 | 0.04 | 0.04 | 88 | 1009.4 |
| 20260506005705 | 60 | 355 | 2.0 | 4.0 | 0.00 | 0.04 | 0.04 | 88 | 1009.4 |
| 20260506005205 | 60 | 355 | 2.0 | 4.0 | 0.00 | 0.04 | 0.04 | 87 | 1009.3 |
| 20260506004204 | 61 | 355 | 1.0 | 3.0 | 0.00 | 0.04 | 0.04 | 85 | 1009.3 |
| 20260506003705 | 61 | 355 | 2.0 | 4.0 | 0.00 | 0.04 | 0.04 | 84 | 1009.2 |
| 20260506003201 | 62 | 355 | 2.0 | 4.0 | 0.00 | 0.04 | 0.04 | 83 | 1009.1 |
| 20260506002700 | 62 | 106 | 1.0 | 3.0 | 0.00 | 0.04 | 0.04 | 82 | 1009.1 |
| 20260506002159 | 63 | 107 | 1.0 | 2.0 | 0.00 | 0.04 | 0.04 | 80 | 1009.2 |
| 20260506001659 | 64 | 108 | 0.0 | 3.0 | 0.00 | 0.04 | 0.04 | 78 | 1009.1 |
| 20260506001159 | 64 | 108 | 1.0 | 3.0 | 0.00 | 0.04 | 0.04 | 76 | 1009.0 |
| 20260506000700 | 64 | 84 | 1.0 | 4.0 | 0.00 | 0.04 | 0.04 | 75 | 1009.0 |
| 20260506000158 | 63 | 84 | 1.0 | 4.0 | 0.00 | 0.04 | 0.04 | 76 | 1009.1 |
| 20260505235657 | 64 | 239 | 1.0 | 2.0 | 0.00 | 0.04 | 0.04 | 77 | 1009.2 |
| 20260505235158 | 64 | 240 | 1.0 | 5.0 | 0.00 | 0.04 | 0.04 | 77 | 1009.1 |
| 20260505234657 | 63 | 194 | 2.0 | 5.0 | 0.00 | 0.04 | 0.04 | 78 | 1009.1 |
| 20260505233657 | 63 | 342 | 0.0 | 2.0 | 0.00 | 0.04 | 0.04 | 82 | 1009.1 |
| 20260505233157 | 63 | 9 | 1.0 | 3.0 | 0.00 | 0.04 | 0.04 | 83 | 1008.8 |
| 20260505232657 | 63 | 9 | 2.0 | 5.0 | 0.00 | 0.04 | 0.04 | 82 | 1008.7 |
| 20260505232158 | 64 | 9 | 2.0 | 5.0 | 0.00 | 0.04 | 0.04 | 82 | 1008.6 |
| 20260505231658 | 64 | 5 | 2.0 | 5.0 | 0.00 | 0.04 | 0.04 | 78 | 1008.5 |